Randolph AFB, TX

7:35 AM CDT on May 28, 2017 (GMT -0500)
Randolph Air Force Base

Weather History for KRND - May, 2014

Change the Weather History Date:

Sunday, May 25, 2014

  Actual Average Record
Temperature  
Mean Temperature 78 °F -  
Max Temperature 87 °F 87 °F 99 °F (2011)
Min Temperature 70 °F 67 °F 61 °F (2017)
Cooling Degree Days 13    
Growing Degree Days 28 (Base 50)    
Moisture  
Dew Point 67 °F    
Average Humidity 79    
Maximum Humidity 91    
Minimum Humidity 49    
Precipitation  
Precipitation 0.00 in - - ()
Sea Level Pressure  
Sea Level Pressure 29.99 in    
Wind  
Wind Speed 8 mph (ESE)    
Max Wind Speed 22 mph    
Max Gust Speed 26 mph    
Visibility 10 miles    
Events      
Averages and records for this station are not official NWS values.
T = Trace of Precipitation, MM = Missing Value Source: NWS Daily Summary

Daily Weather History Graph

Daily Weather History Graph

Search for Another Location

Airport or City:

Trip Planner

Search our weather history database for the weather conditions in past years. The results will help you decide how hot, cold, wet, or windy it might be!

Date:

Astronomy

May. 25, 2014 Rise Set
Actual Time 6:35 AM CDT 8:24 PM CDT
Civil Twilight 6:09 AM CDT 8:51 PM CDT
Nautical Twilight 5:37 AM CDT 9:23 PM CDT
Astronomical Twilight 5:03 AM CDT 9:57 PM CDT
Moon 4:26 AM CDT (5/25) 5:39 PM CDT (5/25)
Length of Visible Light 14h 42m
Length of Day
13h 49m
Waning Crescent, 10% of the Moon is Illuminated
May 25
Waning Crescent
May 28
New
Jun 5
First Quarter
Jun 12
Full
Jun 19
Last Quarter

Hourly Weather History & Observations

Time (CDT) Temp. Heat Index Dew Point Humidity Pressure Visibility Wind Dir Wind Speed Gust Speed Precip Events Conditions
12:48 AM 71.6 °F - 66.2 °F 83% 30.02 in 10.0 mi SE 6.9 mph - N/A   Mostly Cloudy
12:53 AM 71.6 °F - 66.2 °F 83% 30.01 in 10.0 mi SE 6.9 mph - N/A   Mostly Cloudy
12:58 AM 71.6 °F - 66.9 °F 85% 29.99 in 10.0 mi SE 6.9 mph - N/A   Mostly Cloudy
1:58 AM 71.6 °F - 67.3 °F 86% 29.97 in 10.0 mi ESE 8.1 mph - N/A   Overcast
2:13 AM 71.6 °F - 68.0 °F 88% 29.99 in 10.0 mi SE 6.9 mph - N/A   Overcast
2:58 AM 72.0 °F - 67.3 °F 85% 29.95 in 10.0 mi SE 10.4 mph - N/A   Overcast
3:33 AM 71.6 °F - 66.2 °F 83% 29.97 in 10.0 mi SE 8.1 mph - N/A   Overcast
3:43 AM 71.6 °F - 68.0 °F 88% 29.98 in 10.0 mi SE 8.1 mph - N/A   Overcast
3:58 AM 71.8 °F - 67.1 °F 85% 29.97 in 10.0 mi SSE 8.1 mph - N/A   Overcast
4:33 AM 71.6 °F - 66.2 °F 83% 29.97 in 10.0 mi SE 8.1 mph - N/A   Overcast
4:38 AM 71.6 °F - 66.2 °F 83% 29.97 in 10.0 mi SE 9.2 mph - N/A   Overcast
4:43 AM 71.6 °F - 66.2 °F 83% 29.97 in 10.0 mi SE 9.2 mph - N/A   Overcast
4:58 AM 71.6 °F - 66.2 °F 83% 29.95 in 10.0 mi SE 6.9 mph - N/A   Overcast
5:23 AM 71.6 °F - 66.2 °F 83% 29.98 in 10.0 mi ESE 4.6 mph - N/A   Overcast
5:28 AM 71.6 °F - 66.2 °F 83% 29.98 in 10.0 mi ESE 4.6 mph - N/A   Overcast
5:58 AM 71.1 °F - 67.3 °F 88% 29.96 in 10.0 mi SE 5.8 mph - N/A   Overcast
6:58 AM 70.9 °F - 67.3 °F 88% 29.97 in 10.0 mi ESE 4.6 mph - N/A   Overcast
7:08 AM 71.6 °F - 68.0 °F 88% 29.99 in 10.0 mi East 5.8 mph - N/A   Overcast
7:13 AM 71.6 °F - 68.0 °F 88% 29.99 in 10.0 mi East 5.8 mph - N/A   Overcast
7:28 AM 71.6 °F - 68.0 °F 88% 30.00 in 10.0 mi ENE 4.6 mph - N/A   Overcast
7:33 AM 71.6 °F - 68.0 °F 88% 30.00 in 10.0 mi ENE 5.8 mph - N/A   Overcast
7:35 AM 71.6 °F - 68.0 °F 88% 30.01 in 10.0 mi East 4.6 mph - N/A   Light Drizzle
7:40 AM 71.6 °F - 68.0 °F 88% 30.01 in 9.0 mi ENE 4.6 mph - N/A   Light Drizzle
7:47 AM 71.6 °F - 68.0 °F 88% 30.01 in 8.0 mi East 5.8 mph - N/A   Overcast
7:49 AM 71.6 °F - 68.0 °F 88% 30.01 in 7.0 mi East 5.8 mph - N/A   Light Drizzle
7:58 AM 70.7 °F - 68.0 °F 91% 29.99 in 7.0 mi East 4.6 mph - 0.00 in   Light Drizzle
7:59 AM 71.6 °F - 68.0 °F 88% 30.01 in 8.0 mi East 5.8 mph - N/A   Overcast
8:04 AM 71.6 °F - 68.0 °F 88% 30.01 in 7.0 mi East 5.8 mph - N/A   Overcast
8:19 AM 71.6 °F - 68.0 °F 88% 30.02 in 9.0 mi East 4.6 mph - N/A   Overcast
8:49 AM 71.6 °F - 68.0 °F 88% 30.03 in 10.0 mi East 5.8 mph - N/A   Overcast
8:58 AM 71.8 °F - 68.7 °F 90% 30.01 in 10.0 mi East 5.8 mph - 0.00 in   Overcast
9:03 AM 71.6 °F - 68.0 °F 88% 30.03 in 10.0 mi East 6.9 mph - N/A   Overcast
9:08 AM 71.6 °F - 68.0 °F 88% 30.03 in 10.0 mi East 5.8 mph - N/A   Overcast
9:13 AM 71.6 °F - 68.0 °F 88% 30.04 in 10.0 mi East 5.8 mph - N/A   Overcast
9:18 AM 71.6 °F - 68.0 °F 88% 30.04 in 10.0 mi East 5.8 mph - N/A   Overcast
9:23 AM 71.6 °F - 68.0 °F 88% 30.04 in 10.0 mi East 4.6 mph - N/A   Overcast
9:28 AM 73.4 °F - 69.8 °F 88% 30.04 in 10.0 mi Variable 4.6 mph - N/A   Overcast
9:33 AM 73.4 °F - 69.8 °F 88% 30.04 in 10.0 mi East 3.5 mph - N/A   Overcast
9:43 AM 73.4 °F - 69.8 °F 88% 30.04 in 10.0 mi ESE 6.9 mph - N/A   Overcast
9:48 AM 73.4 °F - 69.8 °F 88% 30.04 in 10.0 mi Variable 4.6 mph - N/A   Overcast
9:58 AM 74.5 °F - 69.3 °F 84% 30.01 in 10.0 mi ESE 8.1 mph - N/A   Overcast
10:28 AM 75.2 °F - 69.8 °F 83% 30.04 in 10.0 mi ESE 6.9 mph - N/A   Overcast
10:33 AM 75.2 °F - 68.0 °F 78% 30.04 in 10.0 mi ESE 5.8 mph - N/A   Overcast
10:38 AM 75.2 °F - 68.0 °F 78% 30.04 in 10.0 mi SE 5.8 mph - N/A   Overcast
10:58 AM 76.1 °F - 68.5 °F 77% 30.01 in 10.0 mi SE 9.2 mph - N/A   Overcast
11:08 AM 77.0 °F - 68.0 °F 74% 30.03 in 10.0 mi SE 8.1 mph - N/A   Overcast
11:23 AM 77.0 °F - 68.0 °F 74% 30.03 in 10.0 mi SSE 8.1 mph - N/A   Overcast
11:42 AM 78.8 °F - 69.8 °F 74% 30.01 in 10.0 mi SE 12.7 mph - N/A   Light Drizzle
11:51 AM 78.8 °F - 69.8 °F 74% 30.01 in 10.0 mi SE 12.7 mph - N/A   Mostly Cloudy
11:58 AM 79.5 °F - 69.6 °F 72% 29.99 in 10.0 mi SE 15.0 mph - 0.00 in   Mostly Cloudy
12:58 PM 82.6 °F 86.1 °F 69.3 °F 64% 29.96 in 10.0 mi ESE 13.8 mph 20.7 mph N/A   Mostly Cloudy
1:13 PM 82.4 °F 85.4 °F 68.0 °F 62% 29.98 in 10.0 mi SE 15.0 mph - N/A   Mostly Cloudy
1:18 PM 82.4 °F 85.4 °F 68.0 °F 62% 29.98 in 10.0 mi SE 13.8 mph 23.0 mph N/A   Mostly Cloudy
1:58 PM 86.5 °F 89.3 °F 67.1 °F 52% 29.94 in 10.0 mi SE 21.9 mph 26.5 mph N/A   Overcast
2:58 PM 85.3 °F 87.1 °F 65.5 °F 51% 29.92 in 10.0 mi SSE 17.3 mph - N/A   Overcast
3:58 PM 86.0 °F 87.6 °F 64.8 °F 49% 29.91 in 10.0 mi SSE 18.4 mph 21.9 mph N/A   Overcast
4:58 PM 85.6 °F 87.1 °F 64.2 °F 49% 29.88 in 10.0 mi SE 15.0 mph - N/A   Overcast
5:58 PM 84.7 °F 86.1 °F 64.2 °F 50% 29.88 in 10.0 mi SE 18.4 mph - N/A   Scattered Clouds
6:58 PM 83.5 °F 84.3 °F 62.2 °F 49% 29.89 in 10.0 mi SE 16.1 mph - N/A   Mostly Cloudy
7:58 PM 81.0 °F 82.2 °F 63.1 °F 54% 29.90 in 10.0 mi SE 12.7 mph - N/A   Mostly Cloudy
8:58 PM 79.0 °F - 63.9 °F 60% 29.93 in 10.0 mi ESE 11.5 mph - N/A   Overcast
9:58 PM 77.2 °F - 65.1 °F 66% 29.97 in 10.0 mi ESE 12.7 mph - N/A   Overcast
10:58 PM 75.2 °F - 66.4 °F 74% 29.98 in 10.0 mi East 15.0 mph - N/A   Mostly Cloudy
11:58 PM 73.9 °F - 65.7 °F 75% 30.04 in 10.0 mi ENE 5.8 mph - N/A   Overcast